Regional Weather Roundup
Issued by NWS

Home | Current Version | Previous Version | Graphics & Text | Print | Product List | Glossary On
Versions: 1 2 3 4 5 6 7 8 9 10 11 12 13 14 15 16 17 18 19 20 21 22 23 24 25 26 27 28 29 30 31 32 33 34 35 36 37 38 39 40 41 42 43 44 45 46 47 48 49 50
000
ASUS45 KBOU 291307
RWRCO

WEATHER ROUNDUP FOR COLORADO
NATIONAL WEATHER SERVICE DENVER/BOULDER CO
600 AM MST THU JAN 29 2015

NOTE: "FAIR" INDICATES FEW OR NO CLOUDS BELOW 12000 FEET WITH NO
SIGNIFICANT WEATHER AND/OR OBSTRUCTIONS TO VISIBILITY.

COZ001>005-013-030-031-291400-
...NORTHWEST COLORADO...

CITY           SKY/WX    TMP DP  RH WIND       PRES   REMARKS
CRAIG          CLOUDY    32  29  88 CALM      30.40S
HAYDEN         MOCLDY    30  27  86 E6        30.39S WCI  24
MEEKER         PTCLDY    19  16  88 CALM      30.39S
MOUNT WERNER   NOT AVBL
STEAMBOAT SPGS MOCLDY    29  27  90 CALM      30.39F
WALDEN         CLOUDY    28  25  86 N3        30.39S
$$

COZ006>008-011-291400-
...WEST CENTRAL VALLEYS...

CITY           SKY/WX    TMP DP  RH WIND       PRES   REMARKS
GRAND JUNCTION CLOUDY    33  27  78 SE8       30.34R WCI  26
MONTROSE       MOCLDY    29  24  82 S7        30.38R WCI  22
EAGLE          CLOUDY    30  28  93 CALM      30.42S
RIFLE          PTCLDY    29  25  85 CALM      30.38S
DELTA          MOCLDY    32  26  78 CALM      30.38R
NUCLA          MOCLDY    32  27  80 CALM      30.37S
$$

COZ017>023-064>068-291400-
...SOUTHWEST COLORADO...

CITY           SKY/WX    TMP DP  RH WIND       PRES   REMARKS
DURANGO        PTCLDY    29  26  89 CALM      30.32R
CORTEZ         CLEAR     28  26  92 E5        30.32R WCI  23
PAGOSA SPRINGS PTCLDY    29  28  94 CALM      30.34R
TELLURIDE      PTCLDY    28  19  69 E3        30.37R
WOLF CREEK PAS NOT AVBL
$$

COZ009-010-012-014-032>034-037-058>063-291400-
...CENTRAL COLORADO...

CITY           SKY/WX    TMP DP  RH WIND       PRES   REMARKS
ASPEN          PTCLDY    24  17  74 S6        30.38S WCI  17
BUENA VISTA    MOCLDY    25  18  76 CALM      30.42R
COPPER MTN     LGT SNOW  23  18  80 W5        30.42S WCI  17
BERTHOUD PASS  CLOUDY    14   9  79 NW12      30.42S WCI   0
COTTONWOOD PAS MOCLDY    28  18  64 SE5       30.41R WCI  23
GUNNISON       MOCLDY     9   1  72 CALM      30.44R
KREMMLING      CLOUDY    27  23  86 CALM      30.41S
LEADVILLE      MOCLDY    13   9  84 CALM      30.39S
MONARCH PASS   MOCLDY    18  14  86 MISG      30.51S
SALIDA         CLOUDY    30  21  68 CALM      30.50R
SUNLIGHT       CLOUDY    27  23  86 CALM        N/A
WILKERSON PASS CLOUDY    21  18  86 CALM      30.44R
$$

COZ069>075-291400-
...SAN LUIS VALLEY/SANGRE DE CRISTO MOUNTAINS...

CITY           SKY/WX    TMP DP  RH WIND       PRES   REMARKS
ALAMOSA        CLOUDY    23  18  81 N3        30.35S
LA VETA PASS   NOT AVBL
SAGUACHE       MOCLDY    27  21  80 N5        30.38R WCI  21
$$

COZ035-036-038>040-291400-
...NORTHERN COLORADO FRONT RANGE...

CITY           SKY/WX    TMP DP  RH WIND       PRES   REMARKS
DENVER INTL AP CLOUDY    37  28  70 NW7       30.45R
DMNS CITY PARK   N/A     38  25  57 N3        30.45S
AURORA         CLOUDY    35  28  75 N5        30.45R WCI  31
FRONT RANGE AP NOT AVBL
ERIE MUNI ARPT CLOUDY    37  30  76 CALM      30.45S
BOULDER MUN AP CLOUDY    37  27  65 CALM      30.45R
CENTENNIAL     CLOUDY    36  28  73 N5        30.44R
BROOMFIELD     MOCLDY    37  27  65 N5        30.45R
FORT COLLINS   CLOUDY    36  27  69 CALM      30.47R
LONGMONT       CLOUDY    38  30  72 CALM      30.48R
$$

COZ041-046-047-076>085-087-088-291400-
...PIKES PEAK/PALMER DIVIDE AND SOUTHERN FOOTHILLS...

CITY           SKY/WX    TMP DP  RH WIND       PRES   REMARKS
COLO. SPRINGS  CLOUDY    37  26  64 VRB3      30.44R
A. F. ACADEMY  CLOUDY    35  26  70 N8        30.42R WCI  28
ELLICOTT       CLOUDY   N/A N/A N/A SW3       30.43R
FALCON         CLOUDY    33  25  73 N10       30.43R WCI  24
FORT CARSON    CLOUDY    37  25  60 S2        30.43R
LIMON          CLOUDY    33  26  75 NW10      30.43R WCI  25
MONUMENT HILL  CLOUDY    30  28  93 N6        30.43R WCI  24
TRINIDAD       CLOUDY    37  29  72 NE6       30.44R
$$

COZ042>045-048>051-090-091-291400-
...NORTHEAST COLORADO...

CITY           SKY/WX    TMP DP  RH WIND       PRES   REMARKS
GREELEY ARPT   CLOUDY    37  25  60 N6        30.45R
AKRON          CLOUDY    35  24  64 NW12      30.43R WCI  27
BURLINGTON     CLOUDY    32  28  85 NW6       30.41R WCI  26
WRAY           CLOUDY    33  30  88 NW8       30.43R WCI  26
STERLING       CLOUDY    37  27  65 NW10      30.43R
HOLYOKE        CLEAR     32  28  86 NW6       30.43R WCI  26
FORT MORGAN    CLOUDY    36  27  70 NW7       30.45R
$$

COZ086-089-092>099-291400-
...SOUTHEAST COLORADO...

CITY           SKY/WX    TMP DP  RH WIND       PRES   REMARKS
PUEBLO         CLOUDY    38  29  70 CALM      30.45R
LA JUNTA       CLOUDY    38  30  73 MISG      30.44R
LAMAR          CLOUDY    37  30  75 NW6       30.43R
SPRINGFIELD      N/A     36  28  73 N9        30.42R
$$


USA.gov is the U.S. government's official web portal to all federal, state and local government web resources and services.